Overview Statistics Trail Chart Weather Telemetry Raw packets
 

This is the latest recevied weather packets stored in our database for station/object AC8JV. If no packets are shown the sender has not sent any weather packets the latest 10 day(s).

<< 1 2 3 4 5 6 7 >>
Time Temp. Humidity Pressure Rain* Wind** Luminosity Snow
1788530410 20.56° C 94% 1017.6 hPa 8.64 mm - - -
1788529803 20.56° C 94% 1017.8 hPa 8.89 mm - - -
1788529202 20.56° C 94% 1018.2 hPa 9.65 mm - - -
1788528661 20.56° C 94% 1018.2 hPa 9.14 mm - - -
1788528013 20.56° C 94% 1018.2 hPa 2.79 mm - - -
1788527402 20.56° C 94% 1018.2 hPa 1.27 mm - - -
1788526828 20.56° C 94% 1017.3 hPa 1.52 mm - - -
1788526204 20.56° C 94% 1016.9 hPa 1.27 mm - - -
1788525600 20.56° C 93% 1016.8 hPa 3.05 mm - - -
1788525005 20.56° C 93% 1016.4 hPa 12.19 mm - - -
1788524403 20.56° C 94% 1016.2 hPa 26.16 mm - - -
1788523803 20.56° C 93% 1016 hPa 26.42 mm - - -
1788523203 20.56° C 93% 1015.9 hPa 26.67 mm - - -
1788522622 20.56° C 93% 1015.7 hPa 26.92 mm - - -
1788522004 20.56° C 94% 1016.4 hPa 24.38 mm - - -
1788521423 21.11° C 93% 1018.2 hPa 13.72 mm - - -
1788520805 21.11° C 94% 1016.4 hPa 1.02 mm - - -
1788520203 21.11° C 94% 1015.2 hPa 0.76 mm - - -
1788519601 20.56° C 94% 1015.5 hPa 0.25 mm - - -
1788519004 20.56° C 94% 1015.1 hPa 0 mm - - -
1788518402 20.56° C 94% 1015.5 hPa 0 mm - - -
1788517802 20.56° C 94% 1015.3 hPa 0 mm - - -
1788517202 20.56° C 94% 1014.9 hPa 0 mm - - -
1788516604 20.56° C 94% 1014.6 hPa 0 mm - - -
1788516008 20.56° C 93% 1014.8 hPa 0 mm - - -

* Rain latest hour (hover to see other rain measurements)
** Current wind speed in m/s (hover to see current wind gust speed)